www.pogodaiklimat.ru

Погода и климат >> Архив погоды >> Коморские Острова >> Dzaoudzi


ПОГОДА в Dzaoudzi

  • Прогноз погоды в Dzaoudzi
  • Монитор погоды в Dzaoudzi
  • Климат города

АРХИВ ПОГОДЫ в Dzaoudzi

Время (UTC), дата Ветер
(напр.,м/с)
 
Видим.   Явления Облачность Т
(С)
Тd
(С)
f
(%)
Тe
(С)
Тes
(С)
Комфортность P
(гПа)
Po
(гПа)
Тmin
(С)
Tmax
(С)
R
(мм)
R24
(мм)
S
(см)
09 14.10 ЮЗ 9
{11}
20 км 3/3 700 м
[Cu med, cong]
+29.6 +19.3 54 +35 +37 очень
душно
1012.8 1013.0
12 14.10 ЮЗ 9
{11}
20 км 4/4 1000 м
[Cu med, cong]
+29.0 +20.7 61 +36 +37 очень
душно
1011.2 1011.0
15 14.10 ЮЗ 6
{10}
20 км 1/1 900 м
[Cu med, cong]
+26.6 +20.4 69 +33 +33 очень
душно
1012.3 1012.0
18 14.10 ЮЗ 7
{10}
13 км 9/9 600 м
[]
+26.3 +21.7 76 +34 +34 очень
душно
1013.7 1014.0 +30.0
21 14.10 ЮЗ 5
{8}
15 км н/о +25.6 +21.1 76 +32 +32 очень
душно
1013.2 1013.0
00 15.10 ЮЗ 5
{7}
16 км н/о +25.5 +20.5 74 +32 +32 очень
душно
1012.2 1012.0
03 15.10 З 2
{5}
20 км слабый ливневой дождь 9/9 700 м
[Cu Sc]
+25.3 +21.4 79 +32 +32 очень
душно
1013.7 1014.0
06 15.10 Ю 5 20 км {ливн. осадки} 8/8 750 м
[Cu Sc]
+27.9 +21.0 66 +35 +36 очень
душно
1015.1 1015.0 +25.0 3
09 15.10 Ю 5
{7}
20 км 3/3 750 м
[Cu Sc]
+28.9 +20.6 61 +36 +44 очень
душно
1013.7 1014.0
12 15.10 Ю 5
{7}
20 км 8/8 900 м
[Cu Sc]
+28.5 +20.5 62 +35 +37 очень
душно
1012.6 1013.0
15 15.10 Ю 4
{7}
20 км 9/9 900 м
[Cu Sc]
+26.7 +20.5 69 +33 +33 очень
душно
1014.2 1014.0
18 15.10 З 3
{5}
20 км н/о +25.6 +21.1 76 +32 +32 очень
душно
1015.2 1015.0 +29.5
21 15.10 ЮЗ 2
{4}
19 км н/о +24.6 +21.5 83 +31 +31 очень
душно
1013.9 1014.0
00 16.10 ЮВ 3
{5}
19 км н/о +25.0 +21.5 81 +32 +32 очень
душно
1012.5 1013.0
03 16.10 В 4
{5}
20 км 5/5 600 м
[Cu med, cong]
+25.5 +22.0 81 +33 +33 очень
душно
1014.1 1014.0
06 16.10 В 4
{7}
20 км 4/4 600 м
[Cu med, cong]
+28.2 +22.0 69 +36 +41 очень
душно
1015.8 1016.0 +23.8
09 16.10 СВ 4
{6}
20 км 3/3 700 м
[Cu med, cong]
+30.0 +22.4 64 +39 +51 опасность
солнечного
удара
1014.6 1015.0
12 16.10 В 5
{7}
20 км 1/1 800 м
[Cu med, cong]
+29.7 +22.2 64 +39 +45 очень
душно
1012.6 1013.0
15 16.10 С 3
{5}
20 км 1/1 600 м
[Cu hum]
+26.9 +22.5 77 +35 +35 очень
душно
1013.4 1013.0
18 16.10 С 1
{4}
19 км н/о +26.2 +23.1 83 +35 +35 очень
душно
1014.6 1015.0 +30.8
21 16.10 С 2
{3}
20 км н/о +25.9 +23.6 87 +35 +35 очень
душно
1013.9 1014.0
00 17.10 С 4
{7}
20 км н/о +26.1 +22.8 82 +35 +35 очень
душно
1012.6 1013.0
03 17.10 С 4
{8}
20 км 8/8 750 м
[Cu Sc]
+26.7 +23.2 81 +36 +36 очень
душно
1013.4 1013.0
06 17.10 СВ 6 20 км 6/4 600 м
[Cu Sc Ac trans]
+29.6 +23.1 68 +40 +42 очень
душно
1015.0 1015.0 +25.5
09 17.10 СВ 6
{11}
20 км 3/1 700 м
[Cu Sc Ac trans]
+30.8 +22.9 63 +41 +48 опасность
перегрева
1013.4 1013.0
12 17.10 СВ 6
{9}
20 км 6/5 660 м
[Cu Sc Ac trans]
+29.7 +22.9 67 +40 +42 очень
душно
1011.4 1011.0
15 17.10 СВ 4
{7}
20 км 8/6 660 м
[Cu Sc Ac trans]
+27.6 +23.4 78 +37 +37 очень
душно
1012.4 1012.0
18 17.10 СВ 3
{5}
20 км н/о +26.6 +23.3 82 +36 +36 очень
душно
1013.4 1013.0 +31.6
21 17.10 С 3
{7}
20 км н/о +26.2 +22.9 82 +35 +35 очень
душно
1012.6 1013.0
00 18.10 С 5
{11}
20 км н/о +26.3 +22.2 78 +34 +34 очень
душно
1010.7 1011.0
03 18.10 СВ 8
{11}
20 км 4/4 600 м
[Cu med, cong]
+26.7 +23.2 81 +36 +36 очень
душно
1012.2 1012.0
06 18.10 СВ 8
{12}
20 км 3/3 700 м
[Cu med, cong]
+29.5 +23.0 68 +39 +41 очень
душно
1014.0 1014.0 +26.1
09 18.10 СВ 8
{12}
20 км 6/4 700 м
[Cu Sc Ac trans]
+30.1 +22.8 65 +40 +42 очень
душно
1013.0 1013.0
12 18.10 СВ 8
{13}
20 км 6/6 700 м
[Cu Sc]
+29.7 +21.6 62 +38 +39 очень
душно
1011.4 1011.0
15 18.10 СВ 5
{10}
20 км 3/3 660 м
[Cu Sc]
+26.9 +21.9 74 +35 +35 очень
душно
1012.0 1012.0
18 18.10 С 5
{8}
20 км н/о +26.3 +22.4 79 +34 +34 очень
душно
1013.4 1013.0 +30.8
21 18.10 С 6
{9}
20 км н/о +26.2 +22.1 78 +34 +34 очень
душно
1012.6 1013.0
00 19.10 СВ 3
{7}
20 км н/о +25.4 +22.3 83 +33 +33 очень
душно
1011.6 1012.0
03 19.10 В 5
{8}
20 км 8/8 600 м
[Cu Sc]
+26.3 +22.8 81 +35 +35 очень
душно
1013.7 1014.0
06 19.10 С 6
{10}
20 км 4/4 700 м
[Cu Sc]
+30.0 +23.0 66 +40 +43 очень
душно
1015.1 1015.0 +25.4
09 19.10 С 5
{9}
20 км 4/4 700 м
[Cu med, cong]
+31.5 +21.7 56 +40 +47 очень
душно
1014.2 1014.0
12 19.10 С 4
{7}
20 км 8/8 700 м
[Cu Sc]
+28.5 +22.5 70 +37 +39 очень
душно
1012.7 1013.0
15 19.10 С 3
{6}
20 км 6/6 700 м
[Cu Sc]
+27.3 +23.1 78 +37 +37 очень
душно
1013.5 1014.0
18 19.10 С 2
{5}
20 км н/о +26.3 +22.4 79 +34 +34 очень
душно
1014.8 1015.0 +31.7
21 19.10 С 4
{7}
20 км 9/9 300 м
[]
+26.4 +22.5 79 +35 +35 очень
душно
1014.5 1015.0
00 20.10 С 3
{6}
20 км н/о +26.3 +21.9 77 +34 +34 очень
душно
1013.2 1013.0
03 20.10 СВ 4
{9}
20 км 9/9 700 м
[Cu Sc]
+26.6 +21.8 75 +34 +34 очень
душно
1015.3 1015.0
06 20.10 С 4 20 км 8/8 600 м
[Cu Sc]
+28.6 +22.8 71 +38 +40 очень
душно
1017.5 1018.0 +26.0
09 20.10 СВ 6
{10}
20 км 6/6 700 м
[Cu Sc]
+30.8 +23.2 64 +41 +45 опасность
перегрева
1016.3 1016.0 0.0
12 20.10 СВ 5
{9}
20 км 5/5 700 м
[Cu Sc]
+28.8 +22.8 70 +38 +41 очень
душно
1014.7 1015.0 0.0
15 20.10 С 4
{7}
20 км 4/4 700 м
[Cu Sc]
+27.2 +21.9 73 +35 +35 очень
душно
1015.2 1015.0
18 20.10 СЗ 2
{3}
19 км н/о +26.2 +22.3 79 +34 +34 очень
душно
1016.6 1017.0 +31.6 0.0
21 20.10 С 2
{4}
20 км н/о +25.2 +22.1 83 +33 +33 очень
душно
1016.0 1016.0
00 21.10 С 1
{5}
20 км н/о +25.3 +21.8 81 +33 +33 очень
душно
1015.2 1015.0
03 21.10 СЗ 1
{2}
20 км 8/8 700 м
[Cu Sc]
+23.9 +22.3 91 +31 +31 очень
душно
1016.7 1017.0
06 21.10 Ю 3
{4}
20 км 5/5 700 м
[Cu Sc Ac trans]
+29.8 +22.3 64 +39 +44 очень
душно
1017.7 1018.0 +23.6 0.0

 

Местоположение метеостанции Dzaoudzi (Коморские Острова): широта -12.80 долгота 45.28 высота над уровнем моря 7 м.

В архиве по умолчанию представлена погода в Dzaoudzi за последнюю неделю. Архивные данные за месяц целиком и за предыдущие месяцы, начиная с января 2011 года, Вы можете получить, выбрав интересующий диапазон дат из раскрывающегося списка и нажав кнопку "Ввод!".

Внимание! Время в таблицах - всемирное. Для получения местного времени необходимо прибавить поправку, которая в Dzaoudzi равна 3 ч.

Смотрите также архив погоды в соседних городах и на ближайших метеорологических станциях:

Погода в Iles Glorieuses (Реюньон) (254 км)
Погода в Moroni (Коморские Острова) (260 км)
Погода в Fascene (Мадагаскар) (334 км)
Погода в Mahajanga (Мадагаскар) (338 км)
Погода в Antsohihy (Мадагаскар) (372 км)
Погода в Antsiranana (Мадагаскар) (439 км)
Погода в Besalampy (Мадагаскар) (448 км)
Погода в Pemba (Мадагаскар) (515 км)
Погода в Ile Juan De Nova (Реюньон) (543 км)
Погода в Sambava (Мадагаскар) (554 км)

Пояснения к столбцам:

Ветер - указаны скорость ветра в м/с - средняя за 10 мин, порывы в срок и между сроками (в фигурных скобках) и направление, откуда дует ветер: С - северный, СВ - северо-восточный, В - восточный, ЮВ - юго-восточный, Ю - южный, ЮЗ - юго-западный, З - западный, СЗ - северо-западный.
Видимость - горизонтальная дальность видимости в метрах или километрах. При видимости от 1 до 10 км при отсутствии осадков обычно наблюдается дымка, при ухудшении видимости до 1 км и менее - туман. В сухую погоду видимость может ухудшаться дымом, пылью или мглою.
Явления - указаны атмосферные явления, наблюдавшиеся в срок или в последний час перед сроком; фигурными скобками обозначены явления, наблюдавшиеся между сроками (за 1-3 часа до срока); квадратными скобками обозначены град или гололедные отложения с указанием их диаметра в мм.
Облачность - указаны через наклонную черту общая и нижняя облачность в баллах и высота нижней границы облаков в метрах; квадратными скобками обозначены формы облаков: Ci - перистые, Cs - перисто-слоистые, Cc - перисто-кучевые, Ac - высококучевые, As - высокослоистые, Sc - слоисто-кучевые, Ns - слоисто-дождевые, Cu - кучевые, Cb - кучево-дождевые. Подробнее классификацию облаков см. в Атласе облаков (PDF).
T - Температура воздуха - температура, измеренная на высоте 2 м над землей.
Td - Температура точки росы - температура, при понижении до которой содержащийся в воздухе водяной пар достигнет насыщения.
f - Относительная влажность воздуха - влажноcть воздуха, измеренная на высоте 2 м над землей.
Te - Эффективная температура - температура, которую ощущает одетый по сезону человек в тени. Характеристика душности погоды. При расчете учитывается влияние влажности воздуха и скорости ветра на теплоощущения человека.
Tes - Эффективная температура на солнце - температура, которую ощущает человек, с поправкой на солнечный нагрев. Характеристика знойности погоды. Зависит от высоты солнца над горизонтом, облачности и скорости ветра. Ночью, в пасмурную погоду, а также при ветре 12 м/с и более поправка равна нулю.
P - Атмосферное давление - приведенное к уровню моря атмосферное давление.
Po - Атмосферное давление - измеренное на уровне метеостанции атмосферное давление.
Tmin - Минимальная температура - минимум температуры воздуха на высоте 2 м над землей.
Tmax - Максимальная температура - максимум температуры воздуха на высоте 2 м над землей.
R - Количество осадков - Количество выпавших осадков за период времени, мм. При наведении курсора мыши на число - период времени, за который выпало указанное количество осадков.
R24 - Количество осадков - Количество выпавших осадков за 24 часа, мм.
S - Снежный покров - Высота снежного покрова, см. При наведении курсора мыши на число - состояние снежного покрова и степень покрытия местности в баллах.